Regional Weather Roundup
Issued by NWS

Home | Current Version | Previous Version | Text Only | Print | Product List | Glossary On
Versions: 1 2 3 4 5 6 7 8 9 10 11 12 13 14 15 16 17 18 19 20 21 22 23 24 25 26 27 28 29 30 31 32 33 34 35 36 37 38 39 40 41 42 43 44 45 46 47 48 49 50
885
ASUS44 KLIX 241610
RWRLA
LOUISIANA WEATHER ROUNDUP
NATIONAL WEATHER SERVICE NEW ORLEANS LA
1100 AM CDT THU APR 24 2014

NOTE: "FAIR" INDICATES FEW OR NO CLOUDS BELOW 12,000 FEET WITH NO
      SIGNIFICANT WEATHER AND/OR OBSTRUCTIONS TO VISIBILITY.
      SKY/WX - SKY CONDITION AND SIGNIFICANT WEATHER.
      TMP - AIR TEMPERATURE.    DP   - DEWPOINT TEMPERATURE.
      RH  - RELATIVE HUMIDITY.  PRES - PRESSURE.
      HX  - HEAT INDEX.         WCI  - WIND CHILL INDEX.

*  THESE STATIONS ARE NOT NWS OR FAA STATIONS AND ARE NOT UNDER
   NWS QUALITY CONTROL.

LAZ040-048-061>063-065-066-069-241700-
SOUTHEAST LOUISIANA

CITY           SKY/WX    TMP DP  RH WIND       PRES   REMARKS
N.O. AUDUBON     N/A     82  64  55 MISG        N/A
N.O. INTL ARPT MOSUNNY   77  64  64 S9        29.99S
N.O. LAKEFRONT MOSUNNY   77  63  61 S9        30.00S
N.O. DOWNTOWN* FAIR      79  61  53 S3        30.00S
SLIDELL        MOSUNNY   77  62  59 S10       29.99S
BATON ROUGE    PTSUNNY   79  64  60 S15       29.97F
BOOTHVILLE     SUNNY     73  65  75 S5        30.01S
BELLE CHASSE   MOSUNNY   78  62  57 S5        29.99S
BOGALUSA*        N/A     77  63  60 S9        30.00S
GALLIANO*      MOSUNNY   80  64  58 S7        30.00R
NEW ROADS*     PTSUNNY   73  69  88 SE8G16    29.97S
GONZALES*      PTSUNNY   76  67  71 S9        29.98S
HAMMOND*       PTSUNNY   81  59  47 S10       30.00S
HOUMA*         PTSUNNY   75  64  69 S7        29.99S
PORT FOURCHON* PTSUNNY   75  66  73 SE8       30.02R

$$

LAZ041-044-053-054-241700-
SOUTHWEST LOUISIANA

CITY           SKY/WX    TMP DP  RH WIND       PRES   REMARKS
LAKE CHARLES   CLOUDY    76  63  64 S13       29.93F
LAFAYETTE      PTSUNNY   78  66  66 S10       29.95F
PATTERSON      PTSUNNY   77  66  69 SW6G16    30.02S
SALT POINT       N/A     77  69  76 VRB5      29.98
NEW IBERIA     MOSUNNY   79  65  62 S14       29.96F
CHENAULT AIRPK PTSUNNY   79  64  61 S15       29.94S

$$

LAZ027-028-241700-
CENTRAL LOUISIANA

CITY           SKY/WX    TMP DP  RH WIND       PRES   REMARKS
FORT POLK      CLOUDY    74  64  71 S9        29.91F
ALEXANDRIA INT PTSUNNY   75  64  68 S13       29.90F
ALEXANDRIA     PTSUNNY   76  65  68 SW9       29.92F

$$

LAZ001-002-241700-
NORTHWEST LOUISIANA

CITY           SKY/WX    TMP DP  RH WIND       PRES   REMARKS
SHREVEPORT     PTSUNNY   73  63  68 S10       29.87S
BARKSDALE AFB  PTSUNNY   75  63  66 S13       29.87F
DTN SHREVEPORT PTSUNNY   73  63  70 S15G21    29.87F

$$

LAZ014-016-241700-
NORTHEAST LOUISIANA

CITY           SKY/WX    TMP DP  RH WIND       PRES   REMARKS
MONROE         PTSUNNY   74  63  68 SW9       29.92S
TALLULAH       SUNNY     76  61  59 S14G20    29.92F

$$




USA.gov is the U.S. government's official web portal to all federal, state and local government web resources and services.